Location: *
(49.6619°S, 177.4603°W)
Time: 05:26:38
(UTC+00:00)

Cosmos 1867 - Pass Details

Date: 31 January 2023
Orbit: 778 x 797 km, 65.0° (Epoch: 01 April)

Event Time Altitude Azimuth Distance (km) Brightness Sun altitude
Rises 09:50:41 0° 306° (NW) 3,286 6.7 -16.8°
Reaches altitude 10° 09:53:09 10° 301° (WNW) 2,360 6.0 -17.0°
Maximum altitude 09:58:28 54° 223° (SW) 967 4.4 -17.5°
Drops below altitude 10° 10:03:49 10° 146° (SE) 2,370 6.4 -17.9°
Sets 10:06:18 0° 141° (SE) 3,301 7.1 -18.1°
